Lid_Strength_Index
10 12 12 12 10 10 9 9 9 7 7 8 8 9 8 9 9 8 8 8 8 8 7 8 9 11 11 11 10 11 11 13 14 14 15 16 17 18 18 18 18 17 17
12 12 13 12 11 9 9 10 9 7 7 8 10 11 11 13 11 10 10 10 10 10 9 9 12 13 13 12 12 12 15 16 16 14 14 17 16 17 17 18 18 19 18
11 12 13 12 11 10 9 9 9 9 8 9 13 14 13 13 12 12 12 12 11 11 12 12 14 14 13 12 14 14 14 17 17 16 13 16 15 17 16 18 19 19 19
11 11 12 13 11 10 9 8 9 9 9 11 11 11 13 14 14 13 13 14 13 13 14 14 15 15 15 15 15 15 16 16 18 18 18 19 17 19 20 20 20 19 19
12 12 12 12 11 10 9 9 9 9 10 11 10 11 12 15 16 14 15 15 15 16 16 16 16 16 16 17 17 17 17 17 18 19 19 20 20 21 21 21 21 20 19
12 13 13 12 12 11 10 10 10 10 11 12 12 11 13 16 16 16 15 16 16 17 17 17 17 17 17 17 17 18 18 18 19 19 19 19 20 21 21 22 22 21 19
13 14 14 14 12 11 10 10 10 11 12 12 12 13 13 14 14 15 15 17 17 18 18 18 18 18 18 18 18 18 18 18 18 19 20 20 20 20 20 21 21 21 20
13 14 14 14 12 12 11 10 10 11 12 12 13 14 13 13 13 14 15 16 16 17 18 18 18 18 18 18 18 18 19 18 19 19 19 19 19 19 19 20 20 22 21
13 14 15 14 13 12 11 10 11 11 12 12 13 14 14 14 15 15 16 17 17 18 18 18 18 19 18 18 19 18 19 19 19 19 19 19 20 19 19 19 19 20 22
14 15 15 15 13 12 11 11 10 11 13 13 14 14 14 14 15 16 17 17 17 18 19 19 19 19 19 19 19 19 19 19 20 19 19 19 19 19 19 19 19 19 21
14 14 15 15 14 13 12 11 12 13 14 14 15 16 15 15 16 16 17 17 18 19 18 18 19 19 19 19 19 19 20 20 20 20 20 20 19 20 20 19 20 20 20
14 15 15 15 15 14 14 13 12 13 13 15 16 17 17 16 17 17 17 18 18 18 18 19 19 19 19 19 19 20 20 20 20 20 20 20 19 20 20 20 20 20 20
14 15 16 16 15 15 14 13 13 13 14 16 16 17 18 17 17 17 18 18 18 19 19 19 19 19 19 19 19 19 19 19 19 19 19 20 20 20 20 21 20 20 18
14 15 16 16 15 15 14 14 14 14 15 16 16 17 18 17 17 18 18 18 19 19 19 19 19 19 19 19 19 19 19 19 18 18 19 19 19 19 20 20 20 19 20
14 15 15 16 16 16 15 14 14 15 16 16 17 17 17 17 17 18 18 18 19 19 19 19 19 19 19 19 19 19 19 19 19 19 18 19 19 17 17 19 19 19 20
13 13 14 15 16 16 15 15 14 15 16 16 16 16 17 18 18 18 18 19 19 19 19 19 20 20 19 17 16 18 18 18 19 19 19 18 18 16 14 14 14 16 19
11 12 13 14 14 15 15 15 15 15 16 16 16 17 18 18 18 18 19 19 19 19 20 20 20 20 19 16 14 15 18 18 18 19 18 18 17 18 18 15 12 12 11
11 11 12 13 13 14 15 15 15 16 16 16 17 17 18 18 18 18 19 19 19 19 20 20 19 19 19 15 14 14 17 18 18 18 18 18 17 17 18 18 18 16 15
10 11 11 12 13 14 15 16 17 17 17 17 17 17 17 18 18 19 19 19 19 19 19 19 19 19 18 14 13 13 16 17 17 18 17 17 17 15 13 16 17 16 14
13 13 13 13 14 15 16 17 17 18 18 17 17 17 17 17 18 18 19 19 18 19 19 19 18 18 17 14 12 13 15 16 16 17 17 15 16 14 12 13 15 16 14
15 15 16 16 16 17 17 18 18 18 18 18 18 18 17 17 17 18 18 18 18 19 19 18 18 17 17 16 13 12 15 15 16 16 16 16 13 11 9 9 12 13 12
16 16 17 17 18 17 18 19 19 18 19 19 19 18 17 17 17 17 18 18 18 18 19 18 18 18 18 16 14 12 12 13 15 16 16 15 11 10 9 9 8 8 8
16 17 18 18 18 19 18 19 19 19 19 18 18 17 17 16 16 17 17 18 17 18 18 18 18 18 19 18 14 13 12 11 13 14 14 12 10 9 9 8 8 8 9
18 18 17 18 17 16 15 16 16 16 15 16 16 16 16 16 16 15 16 16 17 17 17 18 17 17 20 19 19 17 15 13 12 12 15 11 10 9 10 12 10 11 11
16 16 16 17 19 19 18 17 16 15 15 16 17 16 16 16 17 18 17 17 18 15 16 17 17 20 21 20 18 17 19 18 16 20 23 21 19 18 17 16 13 12 11
18 17 19 20 21 22 23 23 20 18 18 19 19 18 19 19 19 20 21 17 17 15 15 16 18 22 17 15 13 12 12 12 12 20 21 20 18 16 15 15 15 16 16